Theta_e
344 346 346 346 347 351 352 353 353 355 356 356 358 359 362 359 361 362 363 363 359 360 362 362 358 359 361 360 360 364 366 366 366 367 366 365 366 366 371 370 373 372 374 372 367 366 363 359 357 356 353 352 351 349 349 349 348 347 343 347 347 347 346 348 348 348 346 344 345 344 346 349 349 349 346 345 344 346 347 351 351 351 351 352 355
342 344 346 346 347 349 351 351 353 352 355 356 357 358 362 362 360 362 364 362 360 360 360 361 361 358 358 358 360 358 360 361 364 366 361 361 367 369 368 367 368 372 373 370 367 362 361 357 358 356 351 353 353 352 348 348 346 345 347 347 349 345 346 344 347 347 342 337 336 337 341 344 347 345 342 342 342 344 345 346 348 344 344 346 348
340 342 345 345 346 348 350 351 352 352 354 354 357 358 361 361 361 363 364 363 360 361 362 361 362 362 360 358 358 358 363 366 363 364 364 360 363 367 369 367 368 372 371 371 364 361 360 358 358 356 354 354 352 351 349 347 348 346 347 346 344 347 343 347 347 347 339 339 341 337 335 335 342 342 341 341 341 341 341 341 343 341 340 344 346
340 341 342 344 345 347 349 351 352 353 354 355 356 357 359 362 362 363 364 364 363 362 363 365 365 365 365 364 363 360 358 363 366 362 363 361 358 362 367 368 369 365 366 370 365 362 360 358 357 355 356 355 353 344 345 347 347 347 346 348 346 341 340 341 346 348 346 342 335 332 332 330 332 334 337 339 340 339 339 339 340 341 342 344 345
341 341 343 344 345 346 349 352 352 351 353 355 356 357 360 362 363 364 364 365 366 364 364 366 366 364 365 365 366 366 362 359 358 357 359 362 360 360 361 365 367 366 362 363 361 361 360 359 357 356 355 355 350 343 344 345 347 347 348 348 347 342 340 340 344 346 346 348 341 336 334 330 330 332 333 336 338 336 337 337 337 335 336 340 339
344 343 343 345 345 346 349 352 352 351 353 357 357 359 361 363 366 367 366 366 365 366 366 366 364 364 364 361 358 359 356 356 355 355 354 355 353 356 361 362 364 365 364 363 361 360 360 360 358 356 354 353 347 346 349 349 344 348 348 347 346 347 345 337 340 347 345 347 345 342 340 333 333 335 333 329 342 337 337 336 334 333 335 337 339
345 345 345 344 346 346 349 351 352 352 355 358 359 361 363 365 367 367 366 366 366 367 368 368 366 365 364 362 360 358 357 359 362 360 357 354 355 358 360 362 365 363 362 362 360 361 358 358 358 356 352 352 348 349 348 345 345 347 348 347 348 348 345 340 338 340 345 345 342 341 341 342 341 337 332 334 330 336 338 333 332 334 334 335 334
343 345 345 346 347 346 347 351 353 352 355 356 359 361 364 366 367 367 367 366 368 368 368 369 366 365 365 363 361 359 357 358 362 363 361 360 357 358 360 359 363 364 360 362 361 357 356 355 355 354 351 348 348 347 349 348 348 350 350 350 350 349 347 344 339 338 337 339 342 341 341 342 342 341 340 337 333 329 331 334 333 332 334 330 330
343 344 345 344 345 345 347 350 354 354 353 354 358 361 363 365 367 369 368 367 367 369 368 369 369 367 365 364 361 361 361 360 359 361 361 363 359 359 360 359 361 364 363 359 359 356 354 353 353 353 350 348 350 349 349 349 348 349 350 349 348 348 347 347 343 342 340 338 340 340 339 340 339 338 340 340 333 330 328 329 330 330 332 330 331
344 345 347 346 345 345 347 350 352 353 353 357 358 360 362 365 367 369 368 367 367 369 369 369 369 368 365 364 362 362 362 361 358 358 361 362 361 360 361 362 359 361 361 360 359 356 353 354 352 351 349 348 349 350 348 350 348 350 350 350 350 348 348 346 344 343 341 341 341 340 337 337 338 337 336 335 335 334 327 326 327 328 329 331 332
344 346 347 348 347 346 347 348 352 354 353 355 356 358 361 364 367 368 369 368 368 368 369 368 369 367 365 365 364 363 363 362 360 358 360 361 362 361 360 362 361 359 357 358 355 354 353 353 350 350 350 351 351 351 350 348 346 346 350 349 349 348 347 346 344 343 344 342 341 339 338 337 336 333 333 335 333 331 329 327 326 329 329 328 333
344 345 346 348 347 345 346 348 351 354 354 353 355 358 359 363 366 368 369 370 368 368 369 368 366 366 366 367 366 365 364 361 360 359 359 361 361 360 360 360 360 358 358 354 354 350 353 352 351 350 350 351 350 352 351 350 346 346 348 349 349 349 348 347 346 342 342 342 340 339 339 339 339 336 336 337 333 333 333 330 328 331 333 332 333
344 345 346 347 345 343 343 348 352 354 354 354 354 356 359 362 366 367 368 370 369 368 369 369 367 366 366 366 366 366 365 364 363 361 361 360 361 360 359 358 358 356 353 352 352 352 353 353 350 348 351 351 352 352 351 350 348 345 346 348 348 348 347 347 344 344 343 340 338 340 339 339 338 340 340 336 336 336 335 330 330 331 329 330 333
344 344 344 346 346 344 345 347 351 353 354 353 355 357 359 361 365 367 369 370 371 370 370 370 368 367 367 366 366 366 365 365 363 361 361 362 362 361 358 356 355 353 352 353 353 353 352 352 351 350 352 353 352 352 351 350 348 346 347 347 346 348 348 347 346 345 345 344 344 342 341 339 339 340 340 340 337 335 333 331 331 332 332 328 332
344 345 344 344 346 347 344 346 349 352 354 353 353 356 360 361 365 367 369 372 372 371 371 371 369 369 369 368 367 367 365 365 364 363 363 362 362 361 361 357 353 355 354 356 356 354 353 353 351 350 351 353 352 351 349 349 349 347 347 347 348 346 348 347 346 345 343 343 344 343 342 342 340 340 338 340 339 337 335 334 333 328 328 327 328
343 345 345 345 348 349 347 347 349 351 354 354 355 356 358 361 365 368 370 372 372 372 372 371 371 370 371 370 368 368 367 366 366 365 365 364 364 362 362 361 359 358 358 357 355 353 352 351 352 349 352 351 352 351 350 348 349 348 348 348 346 345 347 347 346 346 343 343 343 344 343 339 341 340 341 339 339 339 338 338 336 333 328 324 327
341 344 346 347 347 349 349 349 349 351 353 354 358 359 360 361 363 368 370 372 372 373 372 372 372 371 372 371 370 369 367 365 362 363 361 364 364 364 361 360 360 359 357 357 356 354 353 351 351 349 350 352 351 350 349 349 349 347 347 347 346 344 347 346 345 345 345 342 343 343 342 342 342 343 343 341 342 342 340 339 339 335 333 329 325
344 346 349 349 348 348 349 350 351 352 355 359 361 362 361 362 365 368 369 371 373 372 371 371 372 371 371 371 371 370 368 366 364 363 364 363 364 365 362 360 359 357 356 356 356 353 353 351 351 350 350 351 350 349 349 349 350 347 347 347 347 347 346 346 346 345 344 344 343 342 342 340 342 342 342 343 343 343 341 340 339 339 338 332 329
343 344 347 348 348 348 350 349 351 354 360 362 362 362 362 363 366 368 369 370 372 371 373 372 372 371 371 370 372 371 370 369 367 366 366 364 363 362 362 360 360 358 357 356 356 354 352 351 351 350 350 350 350 349 350 350 349 348 346 345 346 347 346 344 346 345 343 343 343 341 342 342 343 342 342 341 342 342 343 342 340 340 338 337 335
342 344 345 347 349 350 350 349 349 354 358 360 360 361 361 362 366 367 368 371 372 372 373 372 372 371 370 372 372 373 372 370 369 366 364 365 365 362 362 359 359 357 356 356 355 354 352 350 348 348 345 347 349 348 348 349 348 347 346 343 344 345 344 343 343 343 342 343 342 341 343 343 343 343 343 342 341 343 345 344 344 342 340 339 338
344 345 345 347 350 350 351 350 350 353 358 358 358 359 359 360 362 363 366 367 368 370 371 372 372 371 371 372 371 373 372 370 369 367 366 366 366 365 363 361 362 358 357 356 354 353 352 351 349 348 346 347 349 348 347 348 348 347 346 345 345 345 344 343 344 343 342 342 342 342 342 342 344 342 342 341 340 341 342 341 342 339 337 338 337
345 345 345 346 349 351 351 352 350 350 353 356 355 356 355 356 360 361 361 364 363 368 371 372 372 371 371 372 371 373 372 371 369 367 366 366 366 365 364 363 360 360 358 355 354 351 351 351 348 349 349 348 349 350 344 346 347 346 344 343 343 344 344 343 343 342 342 342 342 342 341 341 342 341 341 340 341 340 339 337 336 335 335 335 337
344 345 345 346 349 351 352 355 353 350 354 356 355 353 353 354 356 359 358 361 360 365 369 372 371 371 371 372 372 372 372 371 368 368 365 365 364 365 364 362 361 359 358 356 353 350 351 350 350 349 349 347 349 348 348 346 346 345 343 342 342 343 343 341 341 342 342 343 342 342 341 342 342 341 340 340 341 341 339 337 336 337 335 335 336
345 346 344 347 349 354 357 358 358 357 359 357 355 354 352 352 354 355 355 359 358 362 367 371 371 371 372 372 372 372 372 369 366 366 364 364 363 364 365 364 362 359 356 356 354 351 350 351 349 349 347 347 347 347 348 347 346 344 344 344 344 344 343 342 342 341 341 342 341 341 341 341 341 340 340 340 340 341 340 340 338 339 338 337 338
347 347 347 348 348 354 359 360 362 361 356 360 357 355 352 353 353 353 355 357 358 360 364 369 370 368 369 371 371 371 370 368 365 365 364 362 361 362 364 363 360 357 356 354 352 351 351 350 348 346 346 346 346 347 348 344 346 346 345 344 344 344 343 343 343 343 343 343 342 341 342 342 342 340 340 339 340 340 340 339 338 338 337 337 336
350 350 349 348 356 361 363 364 365 359 357 363 363 357 355 354 355 354 355 357 357 357 363 367 367 367 369 370 371 371 369 367 365 364 363 361 360 361 362 361 360 357 356 352 350 349 350 350 349 349 348 347 347 348 349 347 344 345 345 345 344 343 342 344 343 343 343 343 343 343 342 342 341 340 340 340 341 340 340 339 338 338 337 337 336
349 350 349 354 358 359 360 362 360 357 359 360 358 357 356 360 358 354 355 356 359 359 365 367 368 366 368 370 371 370 369 367 366 365 363 361 359 358 360 359 359 356 353 350 348 349 350 350 350 348 347 348 347 346 348 348 347 347 347 345 341 341 343 343 343 343 343 342 341 341 342 341 341 340 340 340 340 340 340 340 340 339 339 339 337
350 350 349 350 354 357 359 360 360 358 360 360 360 359 359 361 358 356 354 356 358 361 362 367 368 367 369 371 371 371 370 367 365 367 365 363 361 360 361 362 360 357 351 350 347 347 347 349 349 348 348 348 348 346 347 348 347 347 345 344 343 343 342 343 343 344 343 341 341 341 339 339 340 342 341 342 341 340 341 341 341 339 339 338 336
348 350 351 351 351 357 360 359 360 360 360 361 361 361 363 364 361 361 356 357 362 363 364 366 369 368 370 372 372 371 369 368 366 366 365 363 362 361 361 361 359 356 352 348 346 345 347 348 350 348 348 347 346 345 346 346 346 346 347 343 342 343 344 343 343 342 341 341 341 339 339 338 342 344 341 340 340 340 343 340 341 340 338 335 335
349 351 351 354 355 358 361 362 362 360 361 361 361 362 361 361 360 359 359 359 364 367 367 367 368 369 371 371 370 370 369 368 365 365 366 364 361 361 360 359 358 355 352 347 345 346 347 347 347 347 348 347 345 345 343 336 339 346 345 343 342 344 344 343 343 342 341 340 340 339 339 346 348 346 343 339 333 332 333 340 341 340 338 337 335
342 355 354 355 357 359 363 363 361 361 362 362 363 363 362 360 359 358 360 361 363 368 366 367 369 371 370 370 369 368 368 366 365 365 366 365 363 363 362 361 358 354 350 348 344 343 345 346 344 344 345 346 345 345 334 329 331 335 345 346 343 343 345 344 342 343 342 341 340 340 340 341 346 344 344 337 333 330 329 327 326 328 334 340 334
335 349 355 356 357 359 362 362 362 362 363 363 364 363 362 360 361 360 359 360 364 366 365 369 370 370 369 368 367 367 366 365 365 363 363 363 363 362 361 361 357 353 349 347 345 345 347 345 344 345 346 347 346 338 328 328 329 329 335 346 342 342 341 341 342 341 341 341 340 340 340 341 339 339 340 344 339 330 327 327 326 324 324 325 328
339 345 356 355 355 358 363 362 364 363 363 364 365 363 363 364 364 365 365 363 364 365 368 370 371 370 369 368 367 366 365 364 363 363 363 363 362 361 361 357 355 354 349 348 348 347 345 345 346 346 345 344 346 333 326 326 327 327 328 336 341 338 337 339 340 340 340 341 341 340 340 339 340 346 341 338 340 342 331 324 325 326 325 325 323
326 333 352 358 358 357 361 363 365 365 364 365 368 366 365 365 364 365 364 366 367 369 370 370 370 369 368 367 366 364 363 362 362 361 362 362 361 359 358 358 355 354 350 350 348 347 346 347 347 347 346 346 347 332 325 323 324 324 326 330 342 338 337 338 339 339 340 341 341 340 339 339 340 341 341 339 340 340 342 343 339 337 338 336 324
334 345 344 359 360 360 362 363 362 362 364 364 365 366 365 364 365 365 365 366 367 369 370 369 367 369 367 364 363 362 360 360 358 359 360 360 360 361 358 358 355 352 350 350 347 348 349 348 347 347 346 346 347 326 322 321 321 321 323 327 341 338 337 339 340 340 342 342 343 342 342 341 341 341 341 341 341 342 342 342 335 336 338 341 342
331 350 357 360 358 359 360 362 362 360 362 364 364 365 363 363 365 365 365 366 368 369 369 369 367 367 365 364 361 360 359 358 358 358 356 357 359 359 359 358 356 353 352 350 350 350 350 349 350 347 345 344 345 321 321 320 320 320 322 336 340 338 338 339 340 341 342 344 345 345 343 342 342 342 339 336 339 345 343 340 338 337 340 340 337
347 351 357 364 362 362 362 364 361 360 362 362 364 364 363 363 363 364 365 365 367 368 367 366 365 364 362 360 359 358 357 357 357 355 355 355 357 358 359 359 355 353 350 349 350 348 347 348 345 346 343 345 344 327 318 317 318 318 322 338 339 338 339 340 341 342 343 344 344 342 343 342 343 344 336 326 329 336 342 338 338 338 335 334 334
336 355 360 365 362 362 364 360 358 359 361 363 363 363 363 362 362 363 364 365 366 367 367 366 365 363 362 361 359 358 357 356 356 355 354 355 356 358 357 358 355 352 348 347 347 343 348 347 342 342 342 344 344 331 315 315 316 316 325 338 340 341 341 342 342 342 344 344 344 344 346 343 343 344 330 324 324 335 339 337 335 334 333 332 332
339 353 359 358 360 362 360 359 360 358 360 364 363 362 360 360 362 362 364 366 366 367 367 365 363 363 362 360 359 357 357 355 355 353 353 354 354 356 357 356 353 351 348 349 346 343 345 337 333 339 343 346 341 330 314 315 314 314 325 340 344 343 341 340 342 343 344 344 344 345 345 340 339 338 326 321 320 328 336 335 334 333 332 331 333
348 354 359 360 361 361 360 357 356 360 363 364 361 361 362 363 363 363 363 364 365 368 368 366 364 363 362 360 357 357 357 355 355 355 355 355 356 354 354 354 351 348 346 344 344 343 337 332 339 340 339 340 337 339 324 313 312 313 317 337 343 343 342 341 344 341 342 342 341 343 341 323 321 321 320 318 316 314 331 333 335 332 329 329 333
346 349 356 358 359 360 358 358 360 364 363 362 362 362 361 362 362 362 361 364 368 368 367 366 364 361 359 357 356 355 354 354 355 354 355 355 356 355 355 353 349 348 347 345 344 341 336 337 338 333 338 339 337 342 333 313 312 312 314 322 338 340 342 340 337 336 338 338 340 341 340 328 317 315 313 312 310 308 316 332 333 332 331 324 322
351 357 357 360 359 360 360 359 363 362 361 361 363 362 361 362 362 362 366 367 366 366 365 364 362 360 357 356 355 356 356 354 355 356 356 356 357 357 354 352 350 349 347 346 345 342 338 335 334 337 339 341 343 341 343 318 313 310 312 315 334 340 342 340 340 342 340 339 340 341 339 328 313 313 311 307 304 307 312 326 335 309 308 314 326
355 356 359 356 355 354 353 359 359 360 361 363 365 363 363 363 363 364 366 366 365 363 362 361 359 358 358 357 355 355 355 355 355 355 355 354 354 352 351 351 350 348 346 343 341 341 339 336 337 339 340 341 345 342 330 329 313 310 310 311 316 329 322 339 340 336 337 339 340 340 334 313 310 307 304 304 304 306 310 323 313 310 309 308 318
352 353 353 351 353 357 360 360 359 363 366 367 367 363 363 362 361 365 366 365 363 361 360 359 357 357 356 355 354 354 354 355 355 355 354 352 350 350 350 349 349 346 343 342 346 344 341 338 337 338 339 337 342 343 330 325 321 312 309 309 310 311 313 332 337 338 339 337 340 337 323 303 300 298 301 304 306 307 321 303 308 309 310 313 322
350 351 356 359 359 361 361 362 364 366 366 366 366 363 362 362 364 365 363 362 361 359 358 355 355 354 354 352 354 354 354 354 354 353 352 350 348 348 346 347 346 344 344 343 341 340 338 339 335 335 337 342 342 341 338 327 321 316 311 308 309 310 309 311 331 337 339 332 311 303 300 300 301 299 302 305 306 305 305 304 305 307 313 321 323
356 358 359 360 360 359 359 359 361 364 363 364 365 365 362 363 364 363 362 360 358 355 353 352 353 353 352 353 352 353 353 353 352 352 351 350 348 346 345 346 344 343 342 341 338 338 335 335 336 338 339 339 340 341 337 331 325 321 317 310 310 313 316 317 322 331 315 310 309 306 304 303 305 308 317 324 326 326 310 309 309 310 320 321 323
354 356 356 357 357 355 356 357 357 361 363 364 364 363 362 361 359 359 358 357 356 354 352 352 352 351 353 353 352 350 350 350 351 349 349 347 346 345 346 344 343 342 342 341 338 338 335 337 336 339 340 339 340 339 339 334 332 328 325 319 318 321 316 315 324 332 326 328 321 318 323 317 317 317 320 320 322 317 320 319 323 322 324 325 326
356 356 355 355 354 353 353 354 353 356 357 357 356 355 356 357 356 356 356 355 353 353 352 351 349 350 349 351 349 348 348 347 348 347 346 347 346 346 344 343 343 342 341 337 336 335 336 334 337 338 337 336 337 339 337 335 335 333 333 331 333 333 331 333 333 333 334 333 331 320 318 327 328 326 324 324 325 326 325 325 324 325 325 324 323
352 354 354 353 353 352 352 352 351 352 352 352 351 350 350 352 353 355 356 353 351 350 352 350 348 347 347 349 348 347 347 345 333 325 323 321 323 333 343 333 324 325 339 339 340 341 340 339 340 339 335 332 333 334 336 319 328 316 336 335 337 335 335 335 324 313 332 333 332 329 328 326 326 324 325 325 326 325 326 325 325 324 323 322 322
356 356 357 357 356 355 353 352 352 352 351 351 350 350 351 351 353 354 354 352 351 350 350 347 346 344 344 345 345 345 345 340 332 327 324 318 307 297 307 336 326 311 303 302 313 336 337 341 340 338 332 337 333 335 304 298 298 298 297 298 298 297 300 313 309 313 327 330 327 325 324 325 326 326 324 323 323 324 323 322 322 320 321 320 319
354 355 355 355 355 355 354 353 352 352 350 349 349 349 351 352 354 355 353 352 352 348 346 345 344 343 341 342 344 344 344 341 336 333 333 331 327 318 297 295 302 306 301 297 296 296 300 306 336 332 315 301 301 297 296 296 296 296 295 295 296 296 296 296 301 327 327 325 324 323 323 325 326 325 323 322 324 323 322 321 320 320 321 319 318
Wind_Speed
16 17 17 18 18 15 15 14 14 15 14 14 15 14 14 13 12 13 11 11 10 10 10 10 9 9 8 9 8 8 8 8 7 7 7 5 6 6 6 5 5 6 6 5 4 2 1 1 2 2 2 1 1 2 3 4 3 3 3 2 4 3 3 4 1 4 4 4 2 4 2 2 1 0 1 2 2 1 1 1 2 0 3 2 1
16 16 18 18 16 18 16 13 15 16 15 15 15 15 14 14 14 12 11 11 11 11 10 9 9 9 8 9 8 8 8 8 7 7 6 6 6 5 5 5 6 6 5 4 3 3 2 2 3 3 1 2 1 1 1 1 1 3 1 2 3 2 3 3 4 5 4 2 3 1 1 1 1 2 3 2 1 1 1 1 1 0 1 1 3
15 17 18 17 20 19 16 15 15 16 16 16 15 15 15 14 13 12 11 12 11 11 10 10 9 9 9 8 9 8 7 7 7 6 6 6 7 7 6 5 5 5 4 4 3 4 3 3 3 3 1 3 2 2 1 1 2 1 3 2 2 3 1 1 1 4 5 5 3 2 3 4 2 1 3 2 1 3 2 2 3 4 4 3 2
17 17 19 19 19 18 17 16 15 15 15 15 15 16 13 13 13 13 12 12 11 12 11 11 10 9 9 8 8 7 6 6 6 6 6 6 6 7 6 5 6 5 5 4 3 4 4 4 3 2 3 2 1 1 2 2 2 2 3 2 2 4 4 2 2 3 4 4 2 4 2 1 4 3 4 2 1 1 2 4 3 1 5 4 2
16 18 18 19 19 19 18 17 16 16 16 16 16 15 12 15 14 14 12 12 11 12 12 10 10 10 9 8 7 7 6 7 7 7 7 6 6 6 7 7 6 6 5 5 4 4 4 4 3 3 3 3 2 1 2 4 3 4 2 2 3 2 3 3 3 2 3 3 4 4 3 2 5 4 4 2 5 1 3 4 4 4 5 4 4
17 18 18 19 20 19 19 19 18 16 16 16 16 16 15 14 15 14 12 12 12 13 13 10 10 10 9 9 10 8 8 7 8 8 7 8 8 8 7 7 7 6 5 6 5 5 5 4 3 3 3 3 1 2 2 1 2 4 4 3 3 0 3 2 1 1 1 2 1 1 2 3 4 5 3 3 3 2 2 4 3 5 4 3 2
18 18 18 19 20 20 20 19 19 18 17 16 16 16 16 15 15 15 13 11 12 12 14 11 11 10 11 11 9 9 8 7 7 7 6 6 6 5 4 6 7 6 6 5 5 5 5 4 4 3 2 2 2 2 2 4 4 3 2 2 1 2 1 1 2 4 2 1 2 3 2 3 3 4 4 3 2 3 5 5 5 3 4 3 3
17 19 19 19 20 20 21 20 19 18 17 17 16 16 17 16 16 15 13 12 12 12 13 12 11 11 11 11 9 9 9 8 8 7 6 5 4 5 5 5 5 5 4 5 6 6 4 4 4 3 2 3 4 3 4 3 1 2 1 2 1 2 1 2 2 1 2 3 4 3 4 3 2 2 4 3 3 2 1 5 4 6 8 5 4
19 18 20 20 20 21 20 20 20 19 18 17 16 15 16 16 16 15 14 13 12 14 13 14 11 11 11 10 10 8 9 8 7 7 6 6 6 5 4 4 5 5 4 5 4 4 4 4 4 4 4 4 4 4 4 2 3 3 3 2 2 2 1 1 1 2 5 5 2 2 2 3 2 2 1 1 3 4 2 5 1 5 7 4 2
20 20 20 20 20 20 20 19 19 18 17 17 17 16 16 15 16 16 16 13 12 14 14 15 14 11 11 11 11 9 8 7 7 7 6 6 6 6 5 4 4 5 4 4 5 5 5 5 4 5 5 5 4 5 3 4 3 3 4 3 2 3 2 3 3 2 2 2 1 1 2 1 3 0 4 4 1 1 3 4 3 4 3 2 1
18 19 19 20 19 19 19 21 19 19 16 17 17 17 16 16 16 17 17 14 14 15 15 15 14 12 11 12 12 12 11 9 8 7 7 7 6 6 5 5 4 4 5 5 6 7 6 5 5 6 5 5 5 4 3 4 5 5 3 3 3 4 3 3 1 2 2 1 3 2 2 3 1 3 3 4 2 2 3 5 5 6 5 4 4
19 18 19 19 19 19 19 20 20 20 18 18 18 17 17 16 16 18 17 16 15 15 15 15 14 14 12 13 13 12 11 9 10 9 8 8 7 6 5 5 5 5 6 6 8 8 6 6 6 6 6 6 5 4 5 3 5 4 4 3 3 4 3 2 3 4 3 2 3 4 3 3 1 3 2 0 2 3 4 4 4 3 1 4 1
18 18 17 18 19 20 21 20 20 20 19 20 19 19 18 17 18 19 18 17 15 15 16 16 15 14 13 13 12 11 12 11 10 9 9 8 7 7 7 7 6 6 7 6 7 8 7 7 7 6 6 6 5 6 5 4 3 2 4 4 4 4 4 4 4 4 5 4 4 1 3 2 2 1 2 3 1 2 3 4 5 5 4 3 2
18 19 19 18 19 20 20 20 19 19 21 21 20 18 17 17 18 19 19 18 16 16 16 16 16 15 14 13 12 11 11 11 10 9 9 8 8 8 8 8 8 9 8 7 7 8 8 8 7 7 6 6 6 5 5 5 4 3 4 4 5 4 4 5 5 4 4 4 3 3 3 3 2 2 2 3 3 4 3 5 4 3 5 6 3
18 19 20 21 20 21 21 20 19 20 22 22 20 18 17 17 18 20 19 19 18 17 16 17 15 15 14 13 12 11 11 11 10 9 9 9 8 9 9 8 8 8 7 7 7 8 8 8 8 7 7 6 6 6 5 5 5 4 4 5 5 5 5 5 5 5 4 5 4 4 3 3 2 1 4 4 4 3 3 3 3 4 5 5 6
20 20 21 22 21 21 20 20 20 20 22 20 21 18 18 17 18 20 20 19 18 18 16 16 15 14 15 15 14 13 11 10 9 9 8 9 9 9 9 8 7 6 7 7 8 8 8 8 8 7 7 8 7 7 7 6 6 5 5 5 6 4 5 6 5 5 5 5 4 4 3 4 3 3 3 3 3 3 3 3 4 4 4 5 4
21 20 20 21 21 21 21 21 21 21 21 21 20 20 20 19 19 20 19 18 19 18 17 16 15 15 15 15 14 14 14 13 12 12 12 11 10 10 9 9 8 7 7 8 9 8 8 8 8 8 8 8 8 8 7 6 6 6 6 6 6 6 5 5 5 4 4 4 4 5 4 4 3 2 3 3 3 3 4 4 4 4 3 5 5
21 20 19 21 22 24 23 22 23 23 23 22 21 21 20 19 20 20 19 19 19 18 17 16 16 16 15 16 16 15 14 14 13 13 12 11 11 10 9 9 9 9 8 8 9 10 9 10 8 8 9 9 9 8 8 7 6 6 6 6 6 5 5 5 5 5 5 4 4 4 4 4 4 4 4 4 4 4 5 5 4 4 4 5 5
18 20 19 20 21 22 22 23 24 23 22 21 21 21 19 19 19 20 20 20 19 17 16 14 15 13 13 15 16 15 14 13 12 11 11 12 13 12 11 10 10 10 9 9 10 10 10 10 9 9 9 9 9 8 8 7 7 6 6 6 6 6 5 5 5 5 5 4 4 5 4 4 4 5 4 5 5 5 5 5 5 4 5 5 6
17 18 19 20 22 24 25 24 25 24 23 22 23 21 23 21 20 19 19 18 18 17 16 16 16 14 14 15 15 14 14 14 13 13 13 13 13 13 13 13 12 11 11 11 11 11 11 11 11 10 11 10 10 9 9 8 8 7 6 6 7 7 7 6 6 5 5 4 5 5 5 5 5 4 5 5 5 6 5 5 4 4 5 5 5
16 17 18 20 21 23 24 24 23 22 21 21 22 23 22 21 21 22 20 21 20 19 18 16 15 16 17 17 16 15 16 14 15 15 14 14 13 13 13 12 11 11 12 12 12 12 12 12 11 10 10 10 10 9 9 8 8 8 7 6 7 7 7 6 6 6 5 5 5 5 5 5 5 5 5 5 6 6 6 6 5 5 6 6 6
17 19 20 20 20 20 21 20 19 21 22 24 22 21 22 22 21 21 20 20 20 18 17 17 16 16 18 17 17 16 16 15 16 15 15 14 14 13 13 12 13 13 13 14 14 13 12 13 12 10 8 8 10 8 9 8 8 8 8 7 7 6 6 7 6 6 6 5 5 6 6 6 5 6 6 7 7 6 6 7 7 6 7 7 6
16 17 17 17 18 18 18 19 21 22 21 23 22 22 22 23 22 20 20 21 20 20 18 17 17 16 17 16 16 16 16 17 18 16 17 17 15 15 13 14 13 13 13 13 14 14 14 14 12 11 9 9 9 9 7 8 8 9 9 8 8 8 8 8 8 7 7 6 7 6 6 6 5 7 7 7 7 7 6 7 7 7 7 7 7
14 13 14 14 15 15 14 16 17 17 18 22 21 20 20 21 21 20 22 22 21 20 19 18 17 16 17 16 16 16 18 19 19 16 18 17 15 14 14 14 13 12 14 13 12 11 12 12 12 11 11 11 11 10 8 8 8 9 9 9 8 7 7 8 8 8 7 7 7 7 7 7 7 8 8 7 6 7 7 7 7 7 6 7 7
12 13 13 13 15 16 14 14 15 15 17 17 19 19 20 20 20 20 20 21 20 19 19 18 17 19 18 17 18 18 19 19 19 17 19 18 17 16 15 16 15 14 14 13 12 12 12 13 12 13 12 12 11 10 9 9 8 8 9 9 9 8 8 8 8 8 7 7 8 8 8 7 8 8 8 8 7 9 8 7 7 7 7 7 7
11 11 12 13 11 11 11 13 12 15 17 15 15 18 19 19 20 20 19 19 20 19 20 18 18 18 17 19 19 18 19 20 19 18 19 18 17 16 16 16 16 16 15 14 14 13 12 13 12 12 12 12 11 10 9 9 9 9 9 9 9 9 9 9 9 8 9 8 8 9 9 8 8 9 9 9 8 9 8 9 9 8 7 7 7
13 13 12 11 10 13 15 14 14 17 16 16 18 17 18 16 19 19 18 18 18 18 17 18 18 19 17 19 19 18 17 18 17 16 15 16 17 17 17 17 16 16 16 15 15 14 13 14 13 13 13 13 12 11 10 10 8 7 8 9 9 10 9 8 9 9 9 10 10 9 9 8 9 9 10 10 9 9 8 9 9 8 8 8 7
12 13 14 14 13 12 14 16 16 16 16 16 17 17 16 16 18 18 18 18 16 17 17 17 17 17 17 18 17 16 16 16 15 14 15 15 16 15 15 14 14 16 16 16 16 15 14 13 13 13 12 12 12 12 11 10 9 8 8 9 10 9 9 9 9 10 10 10 10 10 10 9 10 9 9 10 10 9 8 8 8 8 8 8 8
15 15 14 14 15 14 16 17 16 18 18 18 16 16 14 14 16 15 17 18 16 15 16 17 16 16 16 16 14 13 13 13 14 14 15 15 15 15 14 14 14 14 13 15 14 15 14 14 13 13 12 11 11 10 9 10 10 10 9 10 10 10 10 9 10 10 10 10 10 9 9 10 9 9 11 10 10 7 6 8 8 7 7 8 9
15 15 15 15 15 15 16 17 17 19 19 18 16 16 17 17 17 17 16 16 14 14 15 16 16 15 14 14 14 13 12 12 13 14 14 15 15 15 15 15 14 15 13 13 13 14 14 14 14 13 12 11 10 9 10 13 11 9 9 8 9 9 9 9 9 9 10 10 10 9 9 9 5 7 11 12 12 11 9 7 8 8 8 8 8
11 12 14 14 15 15 16 17 18 20 20 18 16 16 16 18 17 18 16 16 16 15 16 16 15 14 13 14 13 13 13 13 13 13 14 14 14 13 13 13 13 13 13 12 12 14 14 13 14 14 13 11 9 8 13 13 13 12 7 7 8 8 9 9 10 9 9 9 9 9 9 9 9 9 9 10 10 10 11 12 12 12 10 9 10
10 12 13 14 15 17 18 19 20 20 20 18 16 17 17 17 17 17 17 16 15 16 16 15 14 14 14 14 13 13 13 12 12 13 15 15 13 12 12 12 12 13 12 12 13 13 13 13 13 13 13 11 10 11 15 14 13 12 9 7 8 8 8 9 9 9 9 9 9 9 8 8 8 9 9 9 12 14 14 14 14 13 14 15 12
12 9 14 15 16 18 18 18 17 18 18 19 18 17 17 15 15 14 14 16 16 16 15 15 14 14 13 13 12 12 12 11 11 12 13 13 15 15 14 14 13 12 12 13 13 13 13 12 13 13 13 12 10 14 15 15 13 13 13 10 9 10 10 10 10 9 9 8 8 8 8 8 8 7 7 9 10 9 13 17 17 15 14 13 14
18 9 12 13 12 13 16 18 18 18 19 17 16 16 15 15 15 15 15 14 15 15 15 15 14 14 14 12 12 12 11 11 10 10 11 13 14 16 15 13 12 11 13 13 14 14 13 12 11 11 10 10 9 12 15 14 13 13 13 11 11 11 11 11 11 10 9 9 9 8 8 8 9 9 9 10 10 11 9 7 5 7 10 12 15
14 9 12 13 14 14 14 16 17 18 17 17 16 16 16 15 15 15 15 14 15 14 14 14 14 13 13 13 13 11 10 11 11 10 11 12 12 12 15 13 13 13 12 12 14 14 12 12 12 11 10 9 7 14 16 16 15 16 15 11 10 11 10 10 11 11 10 10 9 9 9 10 9 10 9 9 10 9 10 6 4 10 11 13 9
15 13 12 14 15 16 16 16 15 16 17 17 16 16 17 16 16 16 15 15 15 14 14 13 13 13 13 12 11 10 11 12 11 10 11 11 10 10 10 10 10 11 11 12 12 12 13 13 11 11 10 9 7 15 16 16 16 15 14 8 9 10 10 10 10 10 10 8 9 9 9 10 10 10 11 7 6 8 9 8 10 13 11 9 9
13 14 14 15 15 15 16 16 16 16 17 16 16 16 16 17 17 16 16 16 16 15 15 14 14 14 13 13 12 12 12 11 10 10 11 11 11 11 10 9 9 8 8 10 13 12 10 12 13 11 10 9 9 14 17 18 17 16 10 7 8 9 10 10 10 9 9 9 8 10 9 8 9 10 2 3 11 6 9 12 12 12 11 12 13
12 11 13 14 14 14 16 17 18 18 18 16 17 16 16 16 16 16 17 16 16 15 15 14 14 13 12 12 12 12 11 10 10 10 10 10 10 10 11 8 9 10 10 10 11 12 11 10 11 10 11 10 7 11 16 16 17 15 11 6 5 7 9 9 9 9 7 8 10 8 6 9 10 10 4 4 2 5 9 12 12 13 13 12 10
11 13 15 15 14 15 17 16 17 18 18 18 18 18 17 16 16 17 16 15 15 14 14 14 13 12 12 12 11 10 10 11 10 11 10 10 10 10 9 8 8 7 7 6 8 11 10 9 10 10 7 8 6 10 17 14 12 12 9 5 5 6 7 9 8 7 7 7 8 7 9 8 8 8 2 6 5 4 7 11 13 12 11 11 10
11 13 13 14 15 14 16 17 18 16 17 19 18 17 17 15 15 15 15 14 13 13 12 11 11 11 10 10 9 9 9 9 10 10 9 9 9 10 11 10 8 8 7 8 7 10 11 10 11 12 11 11 10 4 11 16 14 13 12 7 5 6 9 8 7 5 7 8 7 5 6 12 13 11 8 6 5 7 7 8 9 10 11 11 7
14 13 15 14 14 15 16 17 15 15 15 16 16 15 15 13 13 13 13 12 12 11 12 12 10 11 11 11 9 10 11 11 10 10 9 9 9 9 9 9 9 8 8 8 8 8 10 10 11 11 10 11 7 11 12 17 15 15 14 11 5 8 6 4 3 10 8 6 4 4 4 8 12 11 10 7 7 6 5 6 7 8 3 4 6
11 14 14 14 15 15 15 16 15 15 14 13 12 12 12 13 13 13 13 12 13 13 12 11 11 11 11 11 10 10 11 10 10 9 9 9 8 7 7 8 7 8 8 6 7 8 9 10 9 11 9 8 9 12 9 13 16 15 14 14 7 7 6 9 9 5 3 3 4 3 4 5 10 10 6 8 8 7 6 5 4 5 4 7 5
14 15 14 14 14 16 16 16 15 16 14 13 14 14 13 13 13 14 13 13 13 12 11 11 10 9 9 9 9 10 8 7 8 8 7 8 7 6 6 5 7 7 6 5 5 7 8 8 8 7 7 8 8 10 14 10 12 12 14 13 13 9 2 5 4 5 4 4 4 4 4 7 6 6 6 7 7 7 5 6 6 4 4 4 6
13 14 14 16 15 15 16 16 15 14 14 14 15 14 14 15 16 13 13 12 12 11 11 12 11 10 10 9 9 10 9 7 7 7 6 7 6 4 4 5 7 7 6 7 7 6 7 8 8 7 7 8 8 9 12 16 12 14 12 14 15 13 4 5 4 4 4 4 2 6 5 7 8 7 7 6 6 7 2 6 2 1 1 3 5
14 14 15 16 17 18 17 17 16 16 15 14 14 15 16 15 13 12 12 12 11 11 10 10 11 10 9 8 8 8 8 8 7 7 6 7 7 6 5 4 7 8 7 7 7 5 5 5 7 5 5 6 9 9 7 11 16 13 12 11 8 6 6 3 4 6 4 3 6 7 9 8 7 6 6 6 4 6 7 4 3 3 4 5 5
15 15 16 17 19 20 21 20 17 15 14 13 14 15 17 14 13 12 11 11 11 10 9 9 8 9 10 9 9 9 8 7 6 5 4 4 5 7 8 8 8 9 9 7 6 7 7 8 6 6 7 7 8 8 8 7 8 9 7 8 10 12 8 7 5 3 4 7 6 6 6 7 7 5 5 5 5 4 8 7 6 6 5 6 7
15 15 16 16 17 17 18 18 17 14 13 13 14 11 12 13 13 12 12 12 10 10 10 10 10 9 8 7 7 6 7 6 6 5 4 4 5 7 6 5 6 6 5 6 6 7 7 6 6 6 5 6 7 7 8 8 8 7 7 8 7 5 7 8 5 5 7 5 7 7 5 6 1 7 6 4 5 8 6 5 5 6 6 7 7
15 15 16 16 17 18 17 16 15 13 12 12 11 11 11 12 13 12 12 12 11 9 10 10 10 9 8 7 7 6 7 6 5 3 4 6 7 7 6 5 6 7 6 6 8 8 7 8 8 7 7 4 4 6 7 7 6 7 7 6 8 8 8 6 6 6 6 6 6 6 4 4 3 4 5 5 6 5 6 6 6 7 6 5 4
16 15 15 14 15 16 15 15 14 12 12 12 12 12 12 12 12 12 12 11 10 11 9 11 10 9 8 8 7 8 7 7 9 8 7 7 6 4 3 7 8 6 1 5 7 5 5 5 5 6 4 3 3 5 5 2 5 3 10 10 10 7 6 7 4 7 2 4 5 6 7 7 6 5 5 5 5 6 5 5 6 5 5 5 5
13 13 15 16 15 15 15 14 12 11 12 12 12 11 11 11 11 11 11 11 11 10 10 10 9 9 9 8 7 7 7 8 8 8 7 8 11 12 11 6 6 7 11 12 8 4 2 3 6 4 2 7 8 5 7 11 11 12 13 12 11 11 11 9 8 8 3 4 6 7 7 7 5 4 6 8 8 7 6 5 5 4 5 6 6
13 14 14 14 14 14 14 13 11 10 11 11 10 11 10 11 10 10 11 11 10 9 8 8 8 8 8 9 8 8 9 8 8 7 7 7 6 9 14 14 10 6 10 13 13 11 12 11 5 6 6 14 13 11 9 10 12 13 12 12 11 11 10 9 9 1 3 5 6 7 7 7 6 6 7 7 5 3 5 5 5 5 4 6 6
Wind_Direction
191 191 197 190 191 183 188 184 185 184 187 186 184 185 184 188 184 185 190 188 188 189 194 196 195 197 204 207 206 202 206 209 212 214 216 209 194 195 181 188 182 184 196 201 201 209 236 203 153 212 218 107 35 2 358 352 335 328 297 286 295 298 282 234 136 315 318 265 222 246 184 239 109 14 342 273 252 264 25 341 57 313 359 13 335
193 187 192 194 192 187 187 188 185 186 186 188 187 188 183 188 189 185 184 190 193 189 195 200 202 203 200 205 206 207 207 210 210 214 214 204 188 201 201 204 198 195 193 204 200 205 192 168 164 170 179 107 85 15 332 305 296 256 292 265 200 293 291 350 6 317 257 295 313 269 148 132 127 234 201 279 181 111 103 85 152 264 22 52 343
200 189 189 196 193 191 186 190 188 190 186 189 188 188 185 189 191 187 186 188 193 192 192 199 202 204 207 204 207 211 210 211 215 218 212 218 189 192 204 201 202 195 197 202 209 195 184 175 182 153 178 116 172 210 177 215 218 244 245 313 330 201 257 61 351 335 320 349 323 297 228 190 140 219 263 138 18 82 42 50 6 32 26 12 16
203 194 191 195 194 193 187 190 190 189 186 187 188 190 188 191 191 189 189 189 191 194 195 197 201 204 210 216 210 218 212 217 219 222 219 220 209 193 194 204 201 206 197 207 193 185 178 189 169 158 146 153 199 209 216 222 173 205 217 207 224 283 216 129 82 24 345 354 265 301 336 346 160 183 147 48 131 118 148 90 59 62 87 14 348
204 201 196 193 194 194 189 188 190 191 189 188 189 188 191 190 190 190 191 191 191 192 193 194 194 202 206 213 218 210 213 213 212 214 218 217 221 206 199 194 197 204 195 196 198 172 182 186 176 163 164 178 188 220 202 223 183 197 200 253 255 310 304 131 113 21 23 359 329 321 270 197 353 57 32 81 309 143 76 76 82 40 46 36 17
202 204 200 195 195 194 190 187 192 192 191 190 190 189 190 189 189 190 192 193 194 192 192 193 194 198 197 201 206 207 209 207 209 210 205 206 218 209 199 182 183 195 194 193 190 174 176 181 186 180 193 171 211 231 200 111 232 251 156 214 176 108 339 15 171 77 42 326 355 350 23 349 337 344 304 68 332 52 101 32 66 56 49 69 43
200 204 202 199 195 195 193 190 192 193 192 190 189 189 189 189 189 189 191 193 194 193 190 192 195 200 206 207 207 205 205 207 211 212 217 211 211 194 175 170 174 193 192 193 186 180 184 188 190 207 197 164 182 208 192 218 185 226 147 170 137 124 207 185 263 143 117 226 26 2 38 40 14 345 20 328 155 312 324 176 111 94 105 123 91
201 200 202 203 198 196 196 191 192 195 191 190 189 190 187 190 187 187 190 192 191 191 191 191 196 196 201 207 210 212 212 210 205 209 208 205 209 210 179 182 172 196 197 170 188 193 191 196 201 217 195 197 174 203 218 218 102 173 210 121 160 145 195 294 336 21 243 123 87 342 26 32 15 40 23 8 324 299 211 328 157 172 185 135 107
204 197 201 202 201 196 195 193 192 195 191 190 190 189 187 188 187 187 190 191 190 190 188 191 196 195 198 200 205 210 213 212 203 205 204 198 204 198 203 184 168 175 200 198 191 207 194 198 193 203 195 206 179 209 196 179 211 189 183 183 177 147 200 83 336 346 325 45 36 50 14 345 356 16 303 209 340 332 223 172 163 358 316 92 62
202 202 198 200 202 198 194 194 192 195 193 189 190 189 188 187 188 187 190 190 190 189 189 190 193 196 198 199 203 204 205 209 213 196 191 189 197 193 186 193 190 185 189 198 179 210 196 190 196 198 200 206 188 235 195 161 191 211 195 198 183 174 164 180 228 110 344 40 345 16 276 166 274 220 221 189 179 282 296 288 300 175 222 116 273
199 200 197 197 199 199 192 193 192 192 195 189 191 191 190 188 188 189 189 189 189 190 191 192 193 196 199 198 201 202 202 203 200 203 187 189 196 193 190 185 192 195 203 183 204 198 196 189 200 191 204 197 203 222 217 189 190 191 198 194 195 210 178 186 182 87 179 198 170 241 282 269 308 276 342 1 346 259 288 290 265 14 357 342 172
198 198 196 193 193 196 195 192 190 191 194 192 193 192 192 189 188 189 190 190 190 191 192 195 194 195 199 198 199 202 202 200 200 204 193 193 190 193 188 188 188 193 217 186 190 193 188 186 205 193 195 206 192 207 206 224 244 167 189 179 209 217 196 189 217 196 190 183 245 188 203 261 216 264 297 196 289 315 333 311 305 280 319 302 34
198 195 195 191 192 193 194 190 188 190 193 194 194 193 192 190 188 189 191 190 189 190 192 195 195 195 196 198 200 200 203 202 202 204 198 194 192 191 186 192 188 205 207 213 188 186 178 186 195 200 189 205 199 190 205 202 245 216 177 198 216 206 206 202 195 215 201 220 224 211 234 256 217 244 304 288 252 346 307 300 296 330 300 243 249
197 195 195 192 191 192 193 191 189 190 192 194 194 194 190 191 188 189 190 188 188 189 191 193 196 195 193 196 198 197 202 204 206 206 203 198 195 197 199 196 199 206 203 202 193 188 182 185 191 196 196 193 197 196 192 189 201 230 194 209 217 211 213 212 220 221 208 224 231 254 222 222 262 199 216 262 273 233 214 253 299 294 283 279 226
201 197 195 194 190 190 191 191 190 191 193 194 194 195 191 191 189 189 189 187 186 187 188 192 194 195 193 194 196 197 199 202 205 207 203 203 203 203 205 207 199 198 201 190 197 185 184 180 185 196 192 192 190 193 199 202 197 215 228 211 229 200 208 213 219 217 218 214 219 226 258 262 240 252 240 200 239 268 270 284 275 278 279 282 297
209 199 197 195 191 189 191 191 192 192 193 194 193 192 194 192 190 190 189 186 186 186 189 191 191 192 192 192 195 196 197 200 201 200 203 205 204 205 204 207 208 195 195 189 189 188 185 181 183 194 191 190 189 194 200 200 197 209 215 218 225 220 207 210 220 220 224 226 226 228 237 258 248 238 258 288 255 251 267 253 253 256 281 287 282
207 198 195 194 191 190 191 191 192 192 192 193 190 190 192 190 190 189 189 187 186 187 189 189 190 190 191 193 194 196 196 198 201 201 204 204 204 201 201 200 201 199 194 186 183 189 180 188 186 193 191 189 190 194 199 210 199 202 213 218 226 230 204 214 218 223 242 223 226 224 232 247 259 256 272 264 269 266 258 253 253 272 273 280 284
200 196 193 192 192 191 192 193 192 191 190 189 187 188 189 190 188 187 187 187 186 186 187 188 188 190 191 194 196 197 196 198 200 200 200 202 202 200 199 194 196 195 189 179 183 182 183 187 190 194 189 190 192 192 195 200 205 202 211 217 222 236 218 212 225 232 226 225 237 240 235 243 232 239 233 242 242 249 253 251 256 256 253 267 280
197 196 193 194 195 192 192 192 192 190 188 187 186 185 186 188 187 187 186 187 186 185 185 186 187 189 193 195 196 195 195 196 198 199 197 201 200 199 200 194 189 186 181 181 182 182 186 187 193 192 190 188 190 195 188 195 195 208 207 210 213 219 229 226 224 224 232 226 234 244 243 246 247 252 250 250 253 249 242 245 254 258 256 254 270
197 197 196 196 196 195 193 192 191 189 187 186 185 186 187 188 186 188 186 185 184 184 182 185 187 190 193 194 195 193 192 194 191 194 198 199 201 199 197 193 187 183 184 182 183 185 186 189 193 195 189 189 185 189 187 190 192 200 210 213 211 204 216 228 233 218 228 216 221 231 233 238 243 245 246 250 250 244 252 260 254 249 254 259 262
201 197 199 199 198 197 196 195 192 189 186 187 187 188 189 188 187 189 187 184 184 183 182 184 187 192 192 192 191 191 192 191 191 192 195 197 197 197 196 193 182 187 182 182 185 188 187 191 194 193 194 186 184 183 186 184 190 195 209 215 231 204 205 220 222 235 227 229 229 237 244 248 248 252 249 252 254 255 251 250 257 263 259 253 250
201 197 198 198 198 200 200 197 194 190 190 190 189 189 190 191 189 189 188 187 187 184 184 184 188 191 192 190 189 189 189 189 191 191 194 193 194 195 191 191 185 184 183 184 186 186 188 190 194 187 191 190 183 181 181 187 187 195 202 205 222 220 211 218 226 226 226 230 235 238 244 253 251 254 255 253 247 247 253 252 248 247 256 253 244
201 203 203 199 196 197 197 195 197 195 190 189 189 191 192 192 191 189 189 189 189 186 186 187 190 189 189 187 188 188 188 189 190 190 194 194 193 191 187 189 186 185 183 188 187 187 183 182 186 184 178 195 184 182 189 186 187 192 200 207 208 210 212 220 222 229 233 234 236 237 241 244 247 250 251 253 252 249 246 250 251 248 253 258 261
199 202 206 201 196 193 193 191 194 195 189 190 189 190 191 192 192 190 192 188 190 188 188 188 187 187 185 186 189 188 189 190 191 192 196 197 193 189 186 187 185 184 184 190 185 185 180 178 183 182 185 192 189 183 186 190 187 192 200 208 216 215 217 222 230 232 230 228 237 244 244 246 251 255 254 252 251 245 240 236 245 249 250 257 261
195 201 204 198 194 189 192 192 187 189 190 189 189 188 189 189 191 191 190 187 189 190 189 188 186 185 185 186 189 190 191 192 192 192 195 196 196 195 187 186 184 193 186 181 178 182 180 179 183 185 188 191 189 184 184 194 190 191 200 207 212 219 226 233 237 239 242 244 248 249 246 238 237 246 249 251 245 243 240 241 241 239 239 247 257
186 195 199 204 196 181 183 185 182 186 190 188 190 189 187 186 190 190 189 187 189 190 190 185 185 186 185 188 190 192 192 191 191 193 196 198 199 196 188 188 186 190 183 181 177 181 178 179 184 185 187 189 186 183 186 196 193 192 201 209 212 220 228 232 234 237 239 240 245 247 248 247 244 244 247 247 245 243 242 244 245 243 248 253 256
186 190 195 200 200 189 187 184 183 186 187 187 189 190 188 183 186 189 187 187 187 190 185 183 185 186 186 189 191 193 189 190 192 195 196 199 202 200 195 190 187 188 185 182 180 178 177 180 182 184 189 187 185 183 185 195 200 197 196 207 218 222 229 233 238 240 241 244 245 245 244 242 241 242 246 249 250 249 246 246 245 247 248 248 254
184 190 195 199 200 191 184 185 183 184 185 185 187 188 187 181 184 186 186 187 187 189 184 181 184 186 188 190 191 190 188 193 194 193 196 200 201 200 195 190 186 189 187 184 181 179 178 181 181 186 189 187 185 182 186 194 195 196 202 210 220 230 233 234 239 240 242 246 245 246 247 242 235 239 244 248 251 252 256 251 244 251 250 252 258
188 191 194 193 195 193 186 184 182 180 183 184 184 185 185 182 185 185 186 187 183 182 182 181 183 187 187 186 183 188 192 195 195 193 195 198 199 197 192 192 190 190 187 188 184 180 178 181 180 184 186 188 186 183 184 193 192 196 203 211 222 228 234 240 244 247 245 242 245 246 248 251 243 222 227 238 249 263 261 252 253 241 247 255 255
190 190 189 190 193 190 186 184 182 183 182 182 183 183 184 182 183 185 187 184 176 176 179 181 184 187 182 182 183 186 190 192 197 198 198 198 199 194 190 191 187 188 185 186 183 180 180 180 179 181 183 187 190 185 183 188 190 193 200 214 222 230 237 243 246 248 250 248 250 256 258 259 264 223 216 221 228 237 236 256 266 265 258 251 253
214 193 188 190 189 188 187 187 187 184 182 182 181 181 182 185 184 185 185 181 176 173 181 181 180 177 176 179 181 189 190 192 198 208 209 203 199 193 191 188 182 184 184 182 184 185 184 180 180 180 181 186 185 184 170 185 192 201 205 208 215 225 239 246 246 247 251 254 259 259 260 251 221 208 215 211 224 221 231 235 239 249 252 256 264
219 201 192 185 186 187 190 193 189 184 179 179 178 180 181 185 182 182 183 178 175 173 178 178 176 176 178 180 184 185 189 194 199 208 216 214 202 198 198 191 183 181 183 182 185 184 184 179 181 181 180 181 185 169 166 180 193 199 208 219 222 230 239 246 244 243 245 250 253 255 256 258 260 256 255 231 215 223 227 229 232 235 239 244 241
261 209 188 188 190 191 193 195 191 184 181 179 176 176 180 179 178 175 176 175 175 174 175 176 175 174 173 176 180 186 191 196 201 211 215 213 211 207 205 206 191 184 181 184 183 182 185 184 178 179 183 183 185 164 170 175 185 191 201 213 231 239 241 245 248 242 244 247 250 255 260 262 265 263 246 257 261 241 216 224 228 229 238 241 240
260 233 193 186 192 195 193 193 192 187 179 174 174 174 175 174 174 172 177 173 171 170 173 175 176 179 177 180 188 187 195 199 204 210 215 214 215 215 210 206 203 186 188 184 186 185 184 182 177 173 175 177 184 162 166 169 176 189 200 204 228 233 236 244 248 248 246 247 249 253 255 260 263 261 258 259 256 252 260 239 221 241 236 232 229
255 231 207 188 191 189 184 186 188 183 174 170 172 173 172 173 172 170 173 169 171 169 174 177 179 174 177 187 192 191 198 205 207 207 216 217 213 213 213 208 206 203 194 190 189 186 180 180 174 169 170 173 179 158 168 171 181 194 204 203 226 232 236 239 241 246 247 249 253 253 258 266 265 262 261 258 256 256 252 243 271 276 262 248 254
230 208 191 179 183 182 181 181 178 178 174 171 171 171 170 169 168 167 169 168 169 171 173 174 177 175 176 182 188 193 198 206 207 206 214 217 213 210 210 208 212 202 199 204 201 186 174 172 168 169 169 173 171 161 168 173 188 197 198 203 225 238 241 239 242 245 244 246 246 250 258 261 261 265 264 258 255 262 259 263 252 249 255 263 251
209 202 184 172 175 177 175 171 176 178 170 168 166 168 167 165 166 166 166 169 171 171 174 176 179 178 180 181 188 193 201 204 205 208 214 217 216 210 208 209 209 208 193 190 205 199 176 167 169 168 177 170 178 166 166 175 186 193 175 209 222 236 241 242 245 245 249 253 256 259 258 267 269 270 29 28 256 236 268 270 269 276 277 275 280
214 192 171 165 170 172 167 174 175 176 165 163 165 165 165 165 165 164 166 168 169 172 173 173 176 178 178 181 188 193 198 202 202 209 213 217 218 213 212 194 192 200 204 191 198 211 188 168 160 169 179 181 156 162 172 180 187 173 176 195 224 243 248 245 242 243 244 246 250 252 256 261 267 270 57 235 187 238 265 274 277 280 284 279 271
205 181 169 171 166 172 169 174 173 173 161 158 164 162 162 163 163 165 165 165 169 170 171 172 173 173 174 180 187 189 194 199 203 208 211 210 212 208 202 184 185 197 206 189 198 207 195 179 185 185 149 154 199 189 181 171 150 157 180 207 227 251 252 248 241 245 249 259 263 249 216 230 252 265 296 133 156 233 270 277 280 281 276 278 278
176 182 170 163 162 163 168 172 172 166 158 157 160 160 160 159 161 162 162 165 167 165 165 165 165 164 166 173 187 180 193 200 201 207 210 213 210 208 204 192 181 195 206 208 178 198 205 193 181 172 186 182 204 145 130 132 154 171 183 196 222 239 249 249 248 244 248 248 259 263 197 203 224 225 224 212 190 195 256 273 277 275 277 279 317
178 169 154 159 162 163 168 166 158 152 154 155 155 157 155 154 154 155 157 158 156 156 161 158 157 162 168 175 179 186 191 198 201 203 206 210 209 207 200 186 179 190 207 205 184 189 206 199 193 183 189 191 173 130 150 150 161 177 187 187 209 238 248 266 279 259 255 261 255 242 265 189 206 209 217 193 187 203 234 268 268 276 335 354 324
157 140 152 152 153 153 157 152 143 144 147 146 144 141 144 144 147 147 147 147 152 153 150 152 160 164 167 175 179 180 190 194 196 198 202 207 202 193 183 179 187 186 199 195 171 189 208 208 200 189 181 165 142 150 142 157 166 176 181 184 204 223 241 238 228 230 240 250 266 301 312 140 178 198 185 175 179 186 201 238 275 38 24 359 340
151 152 153 155 152 155 153 142 140 138 139 138 137 136 138 141 141 142 141 143 142 143 141 144 151 160 167 173 180 181 187 192 195 199 202 202 183 183 175 170 177 183 184 188 191 204 202 196 182 156 171 151 141 148 148 152 163 175 183 186 212 220 54 261 245 235 245 249 250 262 83 79 106 123 147 159 163 156 183 237 263 352 17 348 297
147 152 155 155 147 140 132 131 128 128 129 130 135 134 137 136 136 134 130 130 135 138 143 148 150 158 169 181 179 184 188 189 188 189 180 168 148 148 167 172 179 182 176 181 185 194 198 191 173 172 154 150 167 154 152 150 158 175 182 192 210 227 257 252 246 224 232 259 58 66 82 99 103 112 127 136 149 171 202 60 38 85 287 284 273
154 148 140 136 135 135 123 119 122 125 129 133 130 126 126 125 127 131 131 133 135 141 146 148 151 155 165 175 180 184 183 188 183 190 185 186 160 171 185 190 194 194 198 191 168 148 155 188 194 160 165 160 166 136 128 146 151 172 176 191 208 194 207 204 234 221 246 68 81 97 115 119 126 134 136 149 165 201 218 217 198 208 240 262 250
116 118 120 125 125 123 119 118 116 116 118 121 126 129 128 126 127 125 127 129 139 142 142 140 146 156 167 174 181 182 179 162 172 174 193 189 176 175 196 196 204 209 202 182 160 170 179 191 182 189 182 172 137 126 138 141 150 155 168 175 184 189 180 202 244 309 53 117 118 137 129 132 146 147 174 204 227 178 183 200 218 220 238 244 245
119 113 115 112 105 99 97 98 102 109 112 114 119 116 118 124 126 135 136 136 132 140 144 150 152 158 157 161 168 174 173 173 169 161 178 194 197 198 193 195 211 203 185 155 163 174 179 176 179 191 140 131 147 151 138 147 160 157 164 175 187 172 190 186 197 205 210 216 171 182 187 191 306 188 218 10 84 116 156 187 207 208 223 240 251
104 102 97 95 94 97 100 102 104 104 107 114 117 118 121 127 130 129 129 131 137 148 149 151 152 154 160 164 176 163 168 165 166 165 189 196 204 200 186 197 199 186 166 157 175 165 164 180 178 149 152 141 177 153 156 168 165 179 175 180 190 190 188 194 200 195 192 200 159 146 137 196 198 203 216 217 221 224 235 239 234 217 228 262 274
94 93 93 95 97 98 99 100 103 108 110 115 119 124 128 129 124 125 130 134 141 150 150 150 153 156 156 165 167 168 179 138 87 80 60 40 19 1 123 76 38 28 4 189 158 133 149 149 111 94 118 189 187 184 190 100 111 90 167 189 196 192 187 186 54 27 191 201 184 182 222 233 241 243 227 232 222 220 224 227 240 245 254 254 252
86 92 95 97 99 104 105 105 110 115 119 119 120 123 125 122 122 128 134 135 144 150 153 155 160 158 159 160 167 157 138 112 110 106 100 76 60 52 27 78 96 61 64 56 60 113 83 129 117 102 170 207 207 169 112 109 103 85 71 71 67 58 45 55 40 39 0 257 252 263 269 257 244 217 231 234 235 220 233 230 240 245 258 274 281
87 87 87 89 93 97 100 101 104 108 109 113 116 119 116 119 125 131 137 142 150 152 158 150 162 168 144 146 156 145 138 131 122 123 119 120 97 59 59 46 40 63 86 83 79 71 55 36 79 134 72 56 73 92 98 93 90 83 80 75 72 64 58 51 33 30 220 235 247 251 260 264 249 250 256 259 248 221 240 256 263 255 259 262 268